Zurück zum Katalog

GAOFEN 9 04

AktivWissenschaftSSO
NORAD 46025·PAYLOAD·🇨🇳 China

Gestartet Aug 6, 2020 von Jiuquan Satellite Launch Center

Loading…

Nächste Überflüge (nächste 24 Stunden)

TLE

AktuellSource: Space-Track

Epoche: Sep 14, 2026, 11:11 UTC

1 46025U 20054A   26257.46606815  .00009738  00000-0  25348-3 0  9998
2 46025  97.2346 325.2544 0011297 124.4766 235.7548 15.39030113340080

Verfolge GAOFEN 9 04 in Echtzeit mit AllMySat

Download on the App Store